Wind_Gust
15 15 13 12 11 12 15 17 17 19 20 21 21 20 17 19 19 18 21 20 21 21 22 21 21 22 22 21 20 20 19 17 19 19 19 20 23 25 19 20 16 14 13 13 12 14 13 17 18 17 15 16 17 18 17 16 16 13 13 13 14 13 12
12 13 11 11 13 16 18 18 17 18 17 15 13 14 17 18 16 18 18 16 18 19 19 20 19 19 20 19 20 20 20 22 23 16 21 22 22 21 22 20 19 19 16 15 13 14 15 15 17 20 19 18 16 17 18 16 15 14 15 14 14 14 12
12 12 13 14 14 15 17 16 15 16 16 12 14 16 17 16 13 12 12 13 14 16 19 21 20 21 21 18 19 19 20 20 18 21 23 19 21 19 20 20 21 19 17 17 16 15 15 15 13 20 20 20 21 21 18 18 17 16 16 14 14 15 14
13 11 13 15 15 13 16 16 15 16 14 15 13 13 14 13 13 14 14 14 14 16 15 17 20 22 22 21 20 21 22 22 23 22 23 23 20 20 20 21 21 20 19 20 18 18 16 15 16 16 19 21 20 18 19 18 17 18 17 15 15 15 15
9 12 13 16 16 16 14 16 15 15 16 16 16 18 21 21 20 19 18 16 15 16 18 18 19 18 20 22 23 24 23 21 22 24 24 22 19 18 19 20 20 18 17 17 16 14 16 16 14 15 18 19 20 19 20 17 19 18 18 17 17 16 15
11 13 15 16 16 17 15 15 15 15 15 16 16 19 19 22 20 19 20 20 19 20 19 18 16 17 19 21 22 23 23 21 23 24 24 22 22 22 20 20 19 19 19 17 14 14 14 14 15 15 18 19 19 18 18 19 22 20 18 18 18 18 17
12 13 15 17 16 16 16 14 15 14 15 17 18 19 19 18 21 19 17 18 18 19 19 18 20 18 21 25 23 21 23 23 21 24 25 21 22 22 21 21 21 21 20 18 16 16 15 16 16 15 16 18 16 18 18 20 19 21 19 18 17 17 17
13 15 16 15 15 15 14 14 17 16 15 15 16 16 17 18 19 19 19 20 21 20 19 17 19 18 18 20 19 19 22 20 22 24 24 23 24 22 21 21 20 21 20 19 18 18 18 16 15 16 18 19 18 17 18 19 20 20 19 20 19 19 19
15 15 15 15 15 14 13 15 17 15 15 15 16 17 17 18 19 19 19 19 19 21 22 22 22 23 20 21 22 22 23 19 22 23 23 24 23 21 21 21 20 21 20 21 20 19 19 16 17 14 17 18 19 20 19 19 20 21 19 21 20 19 19
18 17 18 16 16 17 15 15 16 16 16 15 16 16 17 17 17 19 19 18 20 20 21 22 23 25 22 20 19 21 22 22 20 23 23 24 23 22 21 21 21 20 20 18 20 19 18 17 17 15 18 18 17 17 20 20 21 20 22 21 22 22 21
19 16 16 17 18 17 15 15 14 16 17 17 16 14 16 18 18 18 20 21 18 20 21 22 23 22 19 17 19 20 21 21 23 23 23 23 22 21 21 21 22 18 18 22 22 20 17 18 18 18 18 19 18 18 17 20 20 20 20 21 20 24 24
17 17 16 15 15 16 17 16 15 17 16 16 17 16 17 19 18 18 19 20 20 21 20 22 22 21 21 20 17 17 21 23 23 23 23 22 22 22 22 22 22 20 22 20 23 21 22 21 22 20 19 19 18 17 15 15 17 21 18 21 21 18 24
18 17 17 17 15 15 16 17 17 17 18 18 18 17 17 18 18 19 20 20 21 22 21 21 23 22 21 21 21 20 22 25 25 24 21 22 23 22 23 23 23 22 18 19 21 22 24 25 23 20 19 19 18 17 16 16 15 14 15 15 19 17 22
19 20 18 18 19 16 14 15 18 17 18 18 18 18 18 18 19 18 20 22 23 21 20 21 21 22 23 22 22 23 25 24 26 21 24 23 23 23 24 24 23 22 18 23 22 22 25 24 22 20 19 19 19 18 19 18 19 17 14 11 15 21 20
20 20 20 19 18 19 17 16 16 17 17 19 18 19 20 18 18 18 19 21 22 23 23 24 23 24 23 22 23 23 24 26 25 27 24 24 27 25 23 24 25 23 24 27 21 26 24 23 23 23 22 20 21 20 20 20 19 17 18 15 16 20 21
22 21 21 20 18 19 19 19 18 18 17 18 19 21 20 18 19 20 21 21 22 23 24 24 23 24 25 26 26 25 24 25 24 24 26 24 24 25 23 24 24 24 25 24 23 22 20 23 23 23 22 21 20 19 20 20 19 19 18 19 18 20 22
22 21 21 21 21 20 20 19 19 17 18 18 21 19 20 19 19 20 21 22 23 23 24 23 23 24 26 26 27 28 28 25 23 20 25 26 26 27 25 24 25 27 24 24 23 23 22 21 22 22 22 20 20 20 17 18 19 18 18 19 20 23 23
24 23 23 22 21 22 21 20 19 19 18 18 19 19 19 19 20 20 21 22 24 24 25 25 25 24 24 24 25 27 27 26 24 25 29 26 18 28 25 27 26 23 23 25 23 23 23 22 24 23 21 22 21 20 19 19 20 20 18 20 19 21 22
25 24 24 23 22 22 21 18 19 19 17 17 18 20 20 20 19 21 22 23 24 25 25 25 25 25 25 24 25 26 26 25 24 24 26 25 26 24 21 26 25 23 24 25 25 24 23 23 24 23 22 23 23 20 19 19 20 20 21 20 20 21 17
26 25 25 24 23 22 22 20 19 19 18 17 17 18 17 19 20 22 22 23 25 25 25 26 26 24 24 23 24 25 23 24 23 24 25 26 23 24 23 24 24 23 24 26 25 25 25 23 24 21 22 22 21 19 21 21 21 22 23 21 22 21 21
26 26 26 25 23 22 22 22 21 19 17 16 16 16 17 18 20 23 23 21 23 23 24 25 25 24 22 23 23 24 25 26 26 23 21 24 25 22 23 23 25 25 22 24 25 24 24 24 21 21 21 22 22 22 22 20 22 24 24 24 24 23 23
26 26 27 26 25 24 23 22 22 22 21 18 16 16 18 18 21 23 23 20 19 24 25 25 26 26 25 25 23 24 26 26 24 23 25 25 23 22 22 20 21 22 18 12 13 14 16 17 18 21 19 19 22 22 20 20 23 25 23 25 26 24 23
28 28 28 28 27 26 25 24 23 22 21 21 21 18 17 18 19 22 21 20 21 24 23 24 16 17 15 22 24 24 23 24 25 24 24 23 22 22 21 21 20 11 7 11 12 14 13 14 15 14 15 19 22 21 21 22 22 24 26 27 27 27 25
29 29 29 29 28 28 27 25 24 24 23 22 21 21 20 18 19 19 20 20 18 19 24 22 11 16 16 14 21 22 24 24 24 24 22 22 23 23 22 21 20 15 13 8 14 11 11 12 9 3 4 10 12 15 19 23 22 22 26 27 19 18 18
29 29 30 30 29 29 28 26 26 25 24 24 24 23 21 22 20 18 18 20 21 20 21 12 13 15 16 15 13 23 24 25 24 22 22 23 23 22 21 22 20 19 21 20 21 17 10 4 4 6 6 7 7 9 8 11 16 21 23 18 19 17 14
29 29 30 30 29 30 30 28 28 26 26 24 23 23 23 23 23 22 19 21 22 18 15 6 11 12 15 16 18 17 25 24 23 22 21 21 22 21 22 22 22 20 20 8 17 21 18 15 8 9 10 10 10 8 7 5 6 10 17 19 18 19 22
29 29 29 29 29 29 29 29 28 26 24 25 25 24 22 22 21 21 22 20 18 17 8 9 6 10 15 17 18 15 23 22 21 21 19 20 20 21 22 22 22 21 17 18 20 20 19 18 17 16 15 16 14 11 6 5 4 3 11 15 14 19 19
29 28 29 29 29 29 28 28 28 27 26 24 24 24 23 21 20 20 20 20 19 10 12 10 6 5 12 16 17 12 21 22 19 16 15 15 18 18 19 21 21 20 20 21 20 16 19 18 17 17 19 18 16 12 12 12 11 17 17 16 16 16 18
28 28 28 28 28 29 29 28 27 26 25 23 23 23 22 21 20 20 19 19 18 15 14 13 9 6 6 13 15 17 21 15 14 14 12 13 14 15 18 18 20 21 20 20 11 10 11 18 18 19 19 16 16 16 18 12 9 15 18 17 17 15 15
27 28 28 28 28 28 28 28 26 25 25 25 24 24 22 22 22 21 20 18 18 16 16 17 13 7 9 10 15 20 14 15 13 13 12 12 13 13 13 14 17 19 19 16 13 10 10 11 18 18 18 17 17 18 19 18 18 20 22 23 21 19 16
26 27 28 29 28 27 26 26 26 25 25 25 25 24 23 22 23 23 23 21 21 16 16 18 16 8 7 10 15 15 14 15 14 13 13 11 11 14 14 17 13 18 16 17 12 12 11 14 19 20 20 21 21 21 20 19 21 21 18 20 19 18 18
26 26 27 27 28 28 27 26 25 25 24 23 25 24 24 25 24 25 25 24 22 22 18 17 18 14 19 16 10 11 10 15 17 14 13 12 13 14 15 15 20 15 14 16 13 10 6 9 18 18 20 21 22 21 20 20 22 24 23 22 20 19 19
25 25 26 24 24 25 24 26 25 24 24 24 24 24 24 25 26 26 26 26 28 26 23 21 23 19 22 23 18 15 12 11 13 14 12 14 15 16 16 17 20 17 17 14 12 9 8 5 16 17 18 20 22 22 20 18 15 18 19 19 19 18 19
25 24 24 23 22 23 24 23 23 23 23 23 24 25 24 24 25 26 26 25 26 28 26 24 22 23 26 25 24 16 16 15 13 14 15 16 15 15 17 17 15 15 17 17 14 13 12 9 8 17 16 16 16 18 14 19 18 10 20 18 17 17 17
24 24 24 24 24 24 23 24 24 23 21 21 23 24 23 24 25 25 24 25 25 24 23 30 22 23 24 24 24 24 21 19 16 17 20 19 18 17 16 18 16 16 19 20 17 16 15 15 14 15 20 19 19 16 20 18 18 18 18 17 17 17 17
26 25 25 24 24 25 24 24 24 25 24 22 22 23 23 25 24 24 23 25 23 22 20 25 28 23 25 25 28 28 24 21 19 21 21 20 18 18 18 18 18 20 23 22 21 20 18 17 14 18 19 16 13 14 14 18 17 17 17 18 17 17 16
25 25 26 26 25 27 26 24 24 25 25 25 23 22 22 22 20 20 23 25 25 21 19 18 24 30 29 29 29 30 28 27 24 21 21 19 17 18 20 20 19 21 23 24 25 24 23 19 17 14 14 13 7 5 15 16 14 15 15 16 16 16 15
Wind_Speed
6 7 5 4 4 4 5 7 7 8 9 10 10 10 8 9 9 8 8 7 5 6 8 8 7 8 9 9 9 9 8 7 7 8 8 7 9 10 9 9 6 5 4 5 4 4 4 6 7 6 7 8 8 8 8 7 7 6 5 5 5 5 4
5 5 4 4 5 6 7 7 7 8 7 7 6 7 9 10 8 9 10 10 7 8 10 7 7 7 10 9 8 8 9 9 10 7 5 7 10 8 10 9 8 8 6 6 5 4 5 6 7 9 9 8 7 7 7 6 6 5 5 5 5 5 4
5 5 5 6 6 6 7 7 5 5 6 5 6 8 9 8 7 6 5 7 8 9 6 6 9 10 10 10 9 10 10 10 7 9 10 8 8 7 6 9 8 8 7 7 6 6 6 7 5 8 9 10 10 8 8 7 7 7 7 5 6 6 5
6 5 6 7 6 6 7 7 6 5 5 6 5 6 7 7 7 7 6 6 5 8 7 9 10 10 10 11 10 11 11 10 7 9 11 12 8 7 11 9 9 8 8 8 7 7 6 6 6 6 8 10 8 8 8 8 8 8 7 6 6 6 5
5 5 6 8 8 8 7 7 5 4 5 6 6 8 11 12 10 10 10 9 8 8 8 6 6 6 8 9 9 10 10 10 10 12 13 10 9 3 7 9 8 8 8 7 5 6 6 6 5 5 7 7 8 7 8 8 9 8 8 7 7 6 6
6 7 8 8 8 8 6 6 4 5 6 6 6 8 10 12 10 10 10 10 9 10 10 9 9 10 9 9 12 10 9 11 10 11 9 11 10 9 10 8 8 8 8 7 5 5 5 5 6 6 6 7 7 7 6 8 7 8 7 7 7 7 7
6 6 7 7 7 7 6 6 5 6 6 7 8 9 7 9 11 10 10 10 10 11 11 11 10 10 11 11 11 8 10 9 9 12 13 11 10 12 10 8 10 9 9 7 7 6 6 7 6 6 6 6 7 7 6 7 8 8 7 7 6 6 7
6 6 6 6 7 7 6 6 5 6 6 6 7 8 8 8 9 10 11 11 11 11 11 9 10 9 9 9 8 7 7 8 5 8 12 12 8 11 7 10 9 9 6 6 7 7 7 7 6 7 7 8 7 7 7 7 8 9 8 7 7 7 7
7 7 6 6 7 7 6 6 6 7 6 6 6 7 8 8 8 9 9 10 10 11 12 13 11 10 11 9 7 7 10 7 8 14 12 12 11 12 12 11 8 9 8 8 8 8 8 7 7 6 7 8 8 8 7 7 7 8 9 8 8 8 8
10 9 8 9 8 8 7 6 7 7 8 7 6 7 8 9 8 9 9 10 11 11 11 12 13 12 10 9 9 10 12 11 10 11 10 11 10 9 3 7 9 7 7 8 7 8 8 7 7 6 8 8 7 7 8 8 8 8 10 9 8 9 10
10 9 8 9 9 8 8 6 7 7 8 7 6 6 7 9 9 9 10 12 10 10 11 11 12 12 10 8 8 10 7 9 9 7 9 8 10 8 11 10 5 8 6 5 7 8 5 5 8 8 8 8 7 8 7 8 7 7 8 10 8 9 10
9 9 8 7 7 8 9 8 8 8 8 8 8 7 8 9 9 9 9 10 9 11 11 11 12 10 11 10 8 8 10 8 9 10 8 9 8 8 10 11 11 6 7 8 11 8 6 5 10 8 8 8 8 8 6 5 6 9 7 9 9 8 11
9 9 9 9 7 7 8 9 9 9 9 8 9 8 8 9 9 9 9 10 10 10 10 10 11 11 11 10 11 10 10 11 12 9 11 10 9 10 10 11 11 9 9 7 8 9 8 8 12 9 8 8 8 7 6 6 4 3 6 6 8 7 11
11 10 10 10 10 9 7 7 8 9 9 9 9 9 8 9 9 9 10 10 11 11 11 11 11 10 11 11 11 12 12 11 10 10 5 10 10 11 11 11 11 11 7 5 5 8 12 13 11 8 8 8 8 8 8 8 8 7 4 3 6 8 9
10 10 11 10 10 10 9 8 8 7 9 10 9 10 10 8 9 9 9 10 11 11 13 13 12 11 11 10 12 10 12 11 12 8 10 11 12 10 10 11 12 11 9 10 11 14 11 10 10 10 10 9 9 8 9 8 8 7 7 5 6 8 9
11 12 12 10 10 10 10 10 10 8 8 8 10 10 10 9 9 10 10 10 11 11 12 12 11 11 10 12 14 13 13 12 12 12 15 14 13 14 12 12 12 11 9 11 11 12 10 11 10 10 11 9 9 9 9 9 7 8 9 7 7 8 9
12 12 12 11 12 11 10 10 10 9 9 8 9 9 10 10 9 10 11 10 11 11 12 11 11 11 13 13 13 14 14 13 11 10 8 10 9 5 10 12 12 10 11 10 11 11 10 10 10 10 11 10 9 9 8 8 9 6 7 8 9 9 9
13 13 13 12 13 13 12 10 9 10 9 9 10 9 9 10 10 10 10 11 11 12 12 12 13 13 12 12 13 13 13 13 12 11 11 12 7 14 13 9 10 12 10 13 12 11 11 12 11 11 10 10 9 9 8 8 9 8 7 8 8 8 9
14 14 14 13 13 12 11 10 10 9 9 9 9 11 9 9 9 11 11 12 10 11 12 12 13 13 14 13 13 12 11 12 12 12 11 10 13 15 10 16 13 7 11 13 12 12 12 13 12 11 11 10 11 9 9 9 8 9 10 8 8 7 7
14 14 14 13 12 11 11 11 10 10 9 9 9 9 9 10 10 10 10 11 13 13 13 13 12 12 13 13 13 13 11 9 12 10 8 9 11 7 8 7 10 11 12 13 13 13 12 13 11 11 11 11 10 10 10 9 9 10 11 9 9 9 9
14 14 14 13 12 12 11 11 11 10 9 9 9 8 9 10 10 11 11 10 8 11 11 12 12 12 11 12 12 12 12 14 14 11 9 11 14 12 12 12 12 13 13 13 13 12 13 11 10 10 9 10 10 10 10 9 10 11 11 11 10 10 10
13 14 14 14 13 13 12 12 12 12 11 10 7 8 9 10 12 12 12 10 9 5 10 11 10 11 11 11 10 11 14 14 12 10 11 14 12 10 10 9 6 7 2 7 8 6 6 8 3 10 9 7 10 8 9 9 10 12 10 10 10 11 10
14 14 15 15 14 14 13 13 12 12 11 11 12 10 8 9 10 12 11 11 7 8 7 11 8 12 12 11 12 12 11 10 11 12 13 11 10 10 10 9 10 9 6 10 8 6 7 8 11 6 3 8 7 8 4 8 10 10 12 13 9 9 11
14 15 15 15 15 15 15 13 12 13 12 12 12 12 11 10 10 10 11 10 9 7 8 8 7 11 13 13 13 10 10 10 14 13 11 11 10 10 10 9 9 8 9 7 6 9 10 11 8 1 1 2 5 2 8 8 10 6 7 12 6 6 7
15 15 16 16 16 16 15 14 14 13 13 13 13 12 12 12 11 10 10 11 9 8 8 8 10 12 13 13 12 8 8 12 12 10 10 9 8 9 9 9 8 7 8 9 10 8 5 3 3 4 5 6 6 8 6 1 4 7 7 2 4 5 3
15 15 16 16 15 15 16 16 15 14 14 13 12 12 13 12 12 12 10 11 11 9 7 5 11 10 12 14 15 12 11 11 10 9 9 11 11 9 9 9 9 7 6 7 8 9 8 6 6 7 7 7 6 5 5 5 6 1 4 3 8 8 9
16 16 15 15 15 15 16 16 16 13 12 13 13 13 12 13 12 12 12 10 9 9 3 6 2 6 9 11 15 11 11 11 10 11 10 9 8 9 10 9 9 8 7 8 8 8 8 9 8 7 6 7 5 4 3 2 1 1 3 6 4 9 8
16 16 16 15 15 15 15 15 15 14 12 13 12 12 12 12 11 11 11 11 10 5 5 9 5 5 6 6 11 9 7 11 8 7 7 7 8 8 9 9 8 8 9 10 8 8 9 8 8 7 7 6 4 2 2 4 3 3 5 5 6 6 8
15 15 15 15 16 16 16 15 15 13 12 11 11 12 11 10 11 11 11 10 9 8 6 12 9 6 5 8 7 6 10 5 6 6 6 7 7 6 4 6 8 9 10 10 8 8 6 8 8 8 8 7 5 6 7 7 5 8 9 7 6 6 7
14 15 15 15 16 15 15 15 14 13 13 12 12 12 12 11 11 11 12 10 10 8 8 12 12 7 6 5 5 7 5 4 4 6 6 6 7 6 4 2 6 8 8 7 10 9 8 8 8 9 8 7 6 7 7 7 12 15 16 17 16 15 13
14 15 15 16 15 14 14 13 13 12 12 13 13 13 12 11 11 11 13 12 11 8 9 12 14 7 1 6 7 5 5 4 4 6 5 5 5 6 7 12 10 6 7 8 11 10 10 9 8 9 9 9 9 9 8 8 8 10 15 16 16 15 14
14 14 14 14 13 14 14 14 12 11 12 12 12 12 12 12 11 11 12 13 17 13 10 11 15 11 9 6 1 2 2 3 5 6 6 5 6 7 7 9 15 10 8 10 11 9 5 5 8 9 9 10 10 10 9 10 11 12 11 11 10 10 10
13 14 14 13 13 12 11 11 13 12 12 11 11 12 12 12 14 13 12 13 14 14 13 11 14 14 11 12 10 6 4 1 3 7 6 6 7 8 8 8 10 14 14 12 11 9 8 6 7 9 9 8 10 11 9 9 7 8 9 9 9 9 9
14 13 13 12 12 12 12 11 11 11 11 11 12 12 13 13 13 14 14 14 13 15 14 13 13 17 11 14 15 10 6 5 5 7 7 8 7 7 7 7 5 9 14 14 12 12 11 9 5 8 7 7 7 10 9 8 8 8 10 9 9 8 8
13 11 11 12 12 12 11 12 12 12 10 10 12 13 13 13 13 13 13 14 15 14 14 22 13 16 11 16 17 16 10 9 8 8 10 8 9 8 7 6 5 10 16 16 15 14 13 13 13 6 11 16 16 14 10 9 8 7 7 7 7 7 7
13 12 12 12 13 13 12 12 13 13 12 12 12 11 13 13 12 13 11 12 12 12 11 14 22 14 14 18 19 20 20 14 15 11 11 11 9 8 7 7 8 14 18 18 17 16 15 15 12 9 15 13 12 12 10 7 7 6 6 7 7 7 6
13 13 14 14 13 14 13 12 12 12 13 12 11 11 11 11 10 11 12 12 13 11 9 9 14 16 15 20 22 23 22 20 18 13 11 9 9 8 9 9 10 17 19 20 20 19 18 15 10 11 10 10 6 5 6 8 6 6 7 6 6 6 6
Wind_Direction
271 283 293 291 291 270 249 245 252 256 252 254 253 249 237 228 227 223 228 227 203 244 231 209 195 189 193 197 192 200 182 173 185 203 203 193 198 206 208 218 211 243 246 231 258 255 192 197 189 193 197 199 199 210 215 209 210 187 187 192 186 172 191
288 295 275 260 262 253 255 255 260 266 263 254 240 229 236 231 222 222 218 210 194 211 214 203 201 190 199 194 189 190 190 186 195 186 200 207 210 220 193 210 212 215 215 212 221 231 236 211 193 186 187 187 204 207 210 213 207 196 192 200 185 179 173
288 287 289 285 270 263 266 267 253 248 252 242 219 226 228 229 229 227 229 201 178 207 190 199 209 194 208 200 196 197 194 193 188 191 210 212 214 217 202 195 201 207 209 207 208 216 228 255 229 188 188 181 197 200 198 198 207 199 190 184 195 184 159
313 298 296 289 283 275 267 267 259 260 260 243 222 209 211 205 216 216 219 209 198 203 195 200 214 200 206 203 201 201 198 190 193 218 226 221 199 197 214 204 203 207 204 206 203 205 218 212 225 200 188 196 205 181 194 194 202 201 193 178 193 181 165
289 285 278 279 284 280 270 266 266 265 253 247 226 218 216 211 215 218 213 203 199 183 193 203 198 212 218 214 210 204 200 189 202 213 216 216 210 241 241 204 207 208 207 215 202 225 204 218 225 208 192 188 205 195 177 186 201 202 200 188 187 175 177
281 271 276 280 280 278 274 263 256 257 250 244 235 232 223 211 209 213 213 205 181 182 185 193 202 209 209 213 213 211 205 197 197 212 216 216 204 202 217 214 209 210 212 208 214 204 216 233 210 215 192 188 197 187 160 184 194 199 196 193 189 177 179
287 280 275 276 280 280 279 271 252 250 242 234 240 240 234 220 214 210 210 209 192 189 187 189 198 209 211 220 215 201 212 206 203 209 219 215 208 213 219 199 201 208 213 206 201 209 212 215 214 211 186 184 199 192 165 186 192 189 183 198 186 178 185
286 276 277 279 273 264 261 262 253 253 250 237 236 243 242 237 228 215 208 204 201 196 190 193 197 201 210 216 220 205 222 225 199 250 223 217 210 220 217 227 202 211 193 218 205 214 215 211 216 202 189 183 188 205 178 190 184 204 183 185 186 184 191
295 288 281 274 274 273 267 258 254 249 254 256 251 244 240 237 229 222 208 208 201 198 194 196 197 202 206 209 219 213 219 214 201 213 224 217 217 214 207 211 212 208 206 210 209 209 224 207 212 209 194 198 193 189 190 188 195 198 192 188 183 188 190
310 306 303 302 296 289 279 264 260 258 254 254 253 246 243 238 232 221 216 213 212 206 202 201 201 204 200 205 214 216 211 206 206 215 215 223 212 212 280 233 220 220 207 214 219 214 213 226 218 204 204 212 204 199 193 197 199 201 188 197 181 183 195
317 312 298 296 301 293 282 278 267 257 253 250 244 240 235 234 235 220 216 212 212 212 210 208 206 207 202 194 200 222 226 211 211 213 226 223 228 208 205 206 165 223 204 197 217 218 236 240 222 207 208 214 217 221 198 211 194 204 187 194 193 178 188
322 319 317 301 292 292 287 281 273 265 260 254 249 240 232 230 229 231 226 220 211 214 211 207 209 207 206 204 196 202 211 209 216 215 217 216 214 211 211 215 208 178 218 200 211 197 197 227 234 212 208 217 210 232 232 209 210 188 201 184 202 189 179
325 323 320 316 297 282 281 281 277 268 260 259 257 250 242 240 231 223 226 221 213 211 206 212 208 204 202 206 205 203 209 208 210 217 217 211 213 208 205 211 213 204 200 191 227 196 205 209 233 211 208 209 210 214 234 232 215 147 234 182 186 197 175
329 326 325 320 311 296 282 273 274 280 273 258 257 258 251 247 247 239 224 222 218 209 203 209 211 207 206 207 210 211 211 211 216 209 195 227 218 205 207 209 205 203 201 201 238 227 204 203 207 214 213 206 210 204 212 220 218 154 161 182 190 190 177
330 330 327 323 318 320 322 307 291 278 273 269 258 255 253 247 241 240 230 226 220 211 206 209 209 207 205 203 210 211 215 211 210 196 223 203 215 225 207 206 203 192 200 212 208 217 208 211 203 207 208 209 204 205 205 213 222 171 160 174 192 190 175
336 335 333 329 327 325 320 317 305 285 274 270 264 255 254 251 243 238 233 228 222 215 208 209 208 207 207 209 211 211 212 206 201 194 215 214 199 214 202 207 201 193 193 212 218 220 209 210 211 208 208 209 211 205 203 216 213 210 169 175 192 193 180
342 342 338 333 328 326 320 312 309 302 286 272 267 264 261 260 251 238 235 228 223 220 214 208 204 204 208 211 214 214 213 206 201 198 210 229 208 204 216 201 201 198 201 206 216 211 217 211 213 214 212 208 209 204 208 202 223 240 200 185 191 206 185
347 345 340 336 333 329 325 318 311 306 304 292 277 267 260 258 257 256 238 229 222 220 216 211 208 204 206 212 215 216 213 206 200 193 204 219 194 202 203 199 218 210 193 205 204 209 210 210 211 213 213 209 204 206 201 203 207 221 216 196 189 207 186
352 346 344 339 336 333 328 321 311 304 297 292 282 272 266 259 259 252 244 235 222 230 220 214 212 205 206 209 213 216 212 207 205 203 207 211 215 221 194 194 202 223 202 202 204 204 210 208 209 213 211 210 207 202 200 199 209 210 218 201 188 190 181
351 349 345 342 337 334 333 327 317 307 298 289 290 288 276 269 257 256 256 259 234 224 220 211 210 205 207 208 208 211 210 202 203 205 215 219 235 197 224 173 208 216 213 204 203 202 204 206 209 213 212 209 218 203 194 205 204 205 212 208 197 187 184
352 354 348 345 340 337 336 337 330 317 305 299 290 284 279 270 265 257 253 246 275 255 230 219 211 206 206 206 206 210 206 207 208 198 206 220 221 204 204 194 202 219 214 204 207 206 202 207 206 213 205 214 213 204 200 202 208 209 208 208 208 185 191
346 352 351 347 348 344 340 340 337 335 328 314 293 283 283 277 269 262 256 243 233 263 269 243 216 205 207 207 205 206 211 204 193 188 206 213 209 209 212 217 225 230 89 21 6 37 359 356 270 214 217 211 211 204 207 209 201 214 211 205 205 199 190
355 354 352 352 352 350 345 343 339 338 335 335 326 307 286 287 281 272 267 264 239 235 242 247 226 209 205 209 206 207 202 199 202 200 207 206 206 205 208 205 214 117 122 198 208 200 202 197 221 291 308 253 219 225 213 218 213 207 211 213 194 203 201
358 358 356 354 354 352 352 348 345 342 342 340 334 330 316 294 280 270 266 259 256 232 238 253 250 204 204 209 210 207 209 209 207 206 202 202 197 201 200 199 204 151 167 143 183 168 187 188 208 199 149 306 27 329 226 229 238 233 227 223 147 220 199
3 1 0 359 356 355 353 353 350 346 345 344 342 338 337 326 304 278 259 255 254 250 235 231 208 205 212 215 225 215 219 213 209 198 197 187 207 196 193 189 202 189 198 201 192 168 154 132 162 146 91 61 62 76 64 62 267 240 241 291 102 130 87
5 5 4 2 359 357 356 356 355 351 349 347 344 345 343 339 334 319 275 265 264 250 240 161 202 203 211 217 224 224 209 224 199 193 196 193 202 198 195 191 192 189 176 146 189 183 175 144 122 116 111 105 80 50 55 85 103 164 277 228 208 180 185
8 7 5 5 2 2 1 359 356 354 349 349 350 346 345 345 338 337 335 310 275 256 239 25 335 214 229 235 228 212 229 224 195 195 189 188 194 198 197 190 183 186 169 175 190 179 172 165 158 160 170 190 172 120 126 124 251 236 291 275 168 160 190
10 9 7 6 6 6 5 2 359 359 355 356 353 348 350 346 346 342 342 339 334 341 46 7 327 256 218 226 270 273 227 230 197 175 176 185 188 186 192 186 189 182 173 175 178 172 169 166 166 178 181 186 168 146 66 13 343 289 234 219 241 185 179
12 12 11 11 10 9 8 6 3 0 359 360 358 355 355 356 352 349 346 350 344 343 348 5 327 284 239 216 203 232 233 213 153 125 126 153 168 153 186 195 205 199 194 164 126 152 165 163 161 169 171 164 130 91 61 35 14 43 41 61 58 69 64
17 16 17 17 15 13 11 9 9 6 7 6 4 2 358 2 0 360 358 360 354 346 344 351 329 298 247 196 173 215 237 209 146 120 115 130 145 148 124 237 207 173 165 136 134 144 143 170 169 155 150 140 118 103 91 77 62 72 78 77 79 79 83
15 15 18 21 21 21 17 15 15 14 12 9 9 8 6 4 6 8 8 6 3 357 355 350 338 342 215 192 197 189 198 206 145 113 108 97 110 86 58 35 352 173 143 130 138 140 157 175 164 155 146 134 125 115 113 111 101 88 93 95 93 94 93
13 12 13 13 16 20 23 23 19 14 18 20 16 14 13 14 13 15 13 13 13 12 3 358 352 351 27 42 51 83 80 224 166 124 112 85 73 83 59 37 20 23 96 119 129 138 164 221 156 155 149 140 130 124 125 131 123 122 122 118 117 111 99
12 14 15 15 13 12 13 17 21 23 22 18 19 20 20 20 22 20 16 18 22 18 10 3 360 349 35 39 55 79 83 92 123 101 94 90 84 59 50 44 26 34 61 62 57 40 8 315 154 146 150 143 132 127 137 135 118 121 111 105 103 97 94
15 14 15 13 17 20 19 16 14 17 20 23 23 22 21 22 24 24 23 22 25 26 20 12 3 347 35 57 56 53 63 54 51 78 75 70 62 67 61 47 40 34 57 55 47 35 22 21 107 138 132 131 117 110 113 112 89 98 103 101 103 105 100
19 14 11 11 13 17 20 21 21 20 21 20 21 23 22 20 21 21 24 26 26 26 23 25 12 348 15 64 67 68 64 45 45 83 81 72 63 62 56 54 44 56 64 61 51 42 35 34 34 67 84 96 105 111 114 113 114 108 108 106 104 104 106
23 22 18 15 16 18 14 17 19 20 22 22 21 22 20 21 19 19 21 24 22 19 22 36 24 6 13 58 68 68 68 64 57 57 71 71 68 68 70 73 68 69 69 66 60 51 42 45 55 85 104 108 112 119 127 123 127 131 128 126 120 110 111
25 23 23 23 22 23 20 17 20 21 23 23 22 22 21 21 18 17 19 22 26 18 16 38 39 32 31 47 59 65 65 64 64 67 63 63 64 72 79 80 80 78 77 75 70 64 58 54 57 50 66 87 120 165 133 133 140 119 112 113 111 104 92